Weather History for KDPA - October, 2012

Change the Weather History Date:

Saturday, October 13, 2012

  Actual Average Record
Temperature  
Mean Temperature 54 °F 53 °F  
Max Temperature 65 °F 64 °F 78 °F (1996)
Min Temperature 43 °F 42 °F 31 °F (2006)
Degree Days  
Heating Degree Days 11 12  
Month to date heating degree days 204 133  
Since 1 July heating degree days 361 244  
Cooling Degree Days 0 0  
Month to date cooling degree days 0 11  
Year to date cooling degree days 1089 814  
Growing Degree Days 4 (Base 50)    
Moisture  
Dew Point 54 °F    
Average Humidity 90    
Maximum Humidity 100    
Minimum Humidity 53    
Precipitation  
Precipitation 0.24 in 0.10 in 2.51 in (2001)
Month to date precipitation 0.64 1.41  
Year to date precipitation 16.21 30.33  
Sea Level Pressure  
Sea Level Pressure 29.94 in    
Wind  
Wind Speed 11 mph (South)    
Max Wind Speed 21 mph    
Max Gust Speed 25 mph    
Visibility 5 miles    
Events Rain    
T = Trace of Precipitation, MM = Missing Value Source: NWS Daily Summary

Daily Weather History Graph

Daily Weather History Graph

Search for Another Location

Airport or City:

Trip Planner

Search our weather history database for the weather conditions in past years. The results will help you decide how hot, cold, wet, or windy it might be!

Date:

Astronomy

Oct. 13, 2012 Rise Set
Actual Time 7:03 AM CDT 6:13 PM CDT
Civil Twilight 6:35 AM CDT 6:41 PM CDT
Nautical Twilight 6:03 AM CDT 7:14 PM CDT
Astronomical Twilight 5:30 AM CDT 7:46 PM CDT
Moon 4:51 AM CDT (10/13) 4:58 PM CDT (10/13)
Length of Visible Light 12h 06m
Length of Day
11h 10m
Waning Crescent, 5% of the Moon is Illuminated
Oct 13
Waning Crescent
Oct 15
New
Oct 21
First Quarter
Oct 29
Full
Nov 6
Last Quarter

Hourly Weather History & Observations

Time (CDT) Temp. Windchill Dew Point Humidity Pressure Visibility Wind Dir Wind Speed Gust Speed Precip Events Conditions
12:52 AM 45.0 °F 41.2 °F 28.9 °F 53% 30.25 in 10.0 mi SSE 6.9 mph - N/A   Clear
5:52 AM 46.0 °F 41.0 °F 39.0 °F 76% 30.12 in 10.0 mi South 10.4 mph - 0.00 in   Overcast
7:52 AM 50.0 °F - 43.0 °F 77% 30.09 in 10.0 mi South 8.1 mph - N/A   Overcast
9:52 AM 54.0 °F - 46.9 °F 77% 30.03 in 10.0 mi South 15.0 mph - N/A   Overcast
10:05 AM 53.6 °F - 48.2 °F 82% 30.03 in 10.0 mi South 11.5 mph - 0.00 in Rain Light Rain
10:50 AM 51.8 °F - 48.2 °F 88% 30.01 in 5.0 mi South 13.8 mph - 0.03 in Rain Light Rain
10:52 AM 52.0 °F - 50.0 °F 93% 30.02 in 5.0 mi South 12.7 mph - 0.03 in Rain Light Rain
11:26 AM 51.8 °F - 50.0 °F 94% 29.99 in 2.5 mi South 12.7 mph - 0.05 in Rain Rain
11:38 AM 51.8 °F - 51.8 °F 100% 29.98 in 3.0 mi South 12.7 mph - 0.06 in Rain Light Rain
11:52 AM 53.1 °F - 51.1 °F 93% 29.98 in 2.5 mi South 11.5 mph - 0.07 in Rain Light Rain
12:12 PM 53.6 °F - 51.8 °F 94% 29.96 in 3.0 mi South 12.7 mph - 0.02 in Rain Light Rain
12:52 PM 54.0 °F - 53.1 °F 97% 29.92 in 4.0 mi South 13.8 mph - 0.04 in Rain Light Rain
1:52 PM 57.0 °F - 55.9 °F 96% 29.89 in 5.0 mi South 15.0 mph - 0.01 in Rain Light Rain
2:52 PM 59.0 °F - 57.9 °F 96% 29.87 in 7.0 mi SSW 12.7 mph - 0.00 in   Overcast
3:52 PM 61.0 °F - 59.0 °F 93% 29.85 in 3.0 mi South 15.0 mph 21.9 mph 0.01 in   Overcast
4:52 PM 62.1 °F - 60.1 °F 93% 29.85 in 5.0 mi SSW 12.7 mph 21.9 mph 0.00 in   Overcast
5:23 PM 62.6 °F - 60.8 °F 94% 29.82 in 2.5 mi South 15.0 mph 20.7 mph 0.02 in Rain Light Rain
5:33 PM 62.6 °F - 60.8 °F 94% 29.82 in 3.0 mi South 11.5 mph - 0.02 in Rain Light Rain
5:52 PM 62.1 °F - 61.0 °F 96% 29.85 in 3.0 mi SSW 10.4 mph 17.3 mph 0.02 in   Overcast
7:27 PM 62.6 °F - 60.8 °F 94% 29.84 in 4.0 mi South 9.2 mph - N/A   Overcast
8:04 PM 62.6 °F - 62.6 °F 100% 29.84 in 4.0 mi SSW 6.9 mph - N/A   Overcast
8:29 PM 62.6 °F - 62.6 °F 100% 29.83 in 4.0 mi South 10.4 mph - N/A   Overcast
9:52 PM 63.0 °F - 62.1 °F 97% 29.81 in 4.0 mi South 10.4 mph - N/A   Clear
10:52 PM 64.0 °F - 62.1 °F 93% 29.79 in 5.0 mi South 8.1 mph - N/A   Scattered Clouds